Lapse_Rate
6.4 6.3 6.6 7.1 7.2 7.1 7.1 7.2 7.2 6.8 7.2 7.3 6.6 6.0 6.1 5.9 5.1 4.2 2.4 2.3 3.3 3.7 4.7 5.4 4.4 3.6 4.0 4.0 4.0 4.5 4.8 4.8 4.8 5.5 6.6 9.0 9.6 9.6
7.0 7.0 7.0 7.1 7.0 6.5 6.6 7.0 7.3 7.0 6.9 7.9 7.2 4.7 4.9 3.9 2.5 2.2 2.1 1.5 2.6 3.6 4.2 3.9 3.9 3.6 3.6 3.6 3.7 3.9 4.0 3.7 4.5 5.5 6.9 9.4 9.6 9.7
6.9 6.9 6.9 7.1 7.2 6.9 6.5 6.9 6.9 7.2 6.7 7.6 7.6 6.3 2.4 1.3 1.0 1.1 1.2 1.5 2.2 3.5 3.5 2.7 3.0 3.0 3.1 3.1 2.9 3.2 3.2 3.3 4.2 5.5 6.4 9.3 9.6 9.7
7.3 7.2 7.5 7.2 6.7 6.6 6.6 6.5 6.4 7.2 6.9 6.8 7.2 6.2 2.6 0.9 1.0 0.6 0.7 1.9 1.7 2.6 2.8 2.5 2.0 2.1 2.6 2.5 2.3 2.5 2.8 3.0 4.2 5.5 6.1 7.8 9.5 9.6
7.5 7.6 7.6 7.6 7.4 7.2 6.6 6.6 6.7 6.7 6.6 6.4 6.8 6.3 2.1 1.1 0.6 0.6 0.3 1.8 1.9 2.9 2.4 1.9 1.7 2.1 2.2 2.0 2.2 2.9 3.0 3.5 4.9 6.2 6.6 7.2 9.5 9.6
7.1 6.9 7.0 7.0 7.4 7.8 7.5 6.6 6.2 6.5 6.4 6.1 6.5 6.0 1.6 0.0 0.9 1.1 -0.1 0.8 1.3 2.3 2.4 0.7 1.4 2.3 1.8 1.9 2.4 2.9 3.5 4.5 5.4 6.0 6.8 9.4 9.5 9.6
6.9 7.1 6.8 5.8 4.8 5.7 7.1 7.1 6.5 6.2 6.4 6.1 6.0 4.7 1.4 0.0 0.6 0.8 1.3 1.0 0.6 1.3 1.4 0.1 -0.5 -0.5 -0.8 1.6 2.2 3.1 4.2 5.1 5.3 6.6 9.2 9.5 9.4 9.5
6.7 6.7 6.6 5.2 5.1 5.3 5.3 4.6 5.3 6.5 6.2 6.8 5.8 5.5 4.3 3.0 0.6 1.5 1.4 1.3 1.4 0.1 0.3 -0.7 -0.6 -1.4 -0.9 -1.2 3.2 4.7 5.3 6.3 6.3 6.7 8.2 9.5 9.5 9.5
7.5 7.4 7.1 7.7 6.2 6.6 6.1 5.6 4.4 4.3 4.2 5.4 5.9 5.4 5.3 3.9 1.2 1.1 1.5 1.3 -0.8 -1.7 -1.0 -0.2 -1.1 -0.8 -0.6 2.5 4.8 5.5 6.8 7.2 6.5 6.5 7.0 9.3 9.5 9.5
7.0 7.0 7.7 7.5 7.5 7.0 6.7 5.4 6.3 6.0 5.2 4.6 4.8 5.6 5.2 4.4 2.0 1.9 0.8 -1.6 -2.5 -0.4 0.6 0.4 -0.5 -1.0 0.5 1.3 5.4 6.3 7.8 8.6 6.8 6.3 6.5 7.0 8.6 9.4
8.7 8.4 8.5 7.8 6.4 6.6 6.1 6.1 5.7 6.2 1.5 1.9 2.9 3.5 3.1 2.5 1.1 -0.7 -1.8 -0.3 -0.2 0.6 0.6 1.5 -0.1 0.8 1.9 2.2 2.2 5.1 6.3 5.9 6.1 6.0 6.7 8.2 8.8 9.1
7.1 6.2 6.1 5.9 5.9 6.3 6.6 5.9 5.5 5.9 1.1 -0.3 -0.1 0.8 1.1 1.4 1.6 0.7 -1.8 0.1 0.9 1.8 0.4 0.5 0.9 1.6 2.0 1.9 1.9 2.0 2.3 5.6 6.8 7.1 8.6 9.1 9.6 6.6
6.1 6.2 6.6 6.0 5.5 4.9 5.1 4.8 4.1 4.9 2.1 -0.1 -1.8 -2.7 -2.3 -1.6 -2.0 -0.1 0.6 0.5 -0.3 0.5 0.1 -0.6 -1.6 0.4 1.2 0.8 1.6 2.2 1.7 2.0 2.3 3.2 6.2 7.7 8.2 8.3
5.7 5.9 6.9 6.5 4.7 4.4 4.3 4.6 4.5 4.4 0.3 -1.1 -1.8 -2.1 -0.5 -0.3 -0.2 0.6 0.2 0.4 0.4 0.7 1.5 -1.4 -1.6 -0.9 -1.9 -0.2 0.4 1.2 1.1 1.5 1.9 2.6 3.1 5.4 7.6 8.8
5.8 6.2 7.1 6.5 5.5 4.9 4.8 4.9 4.6 2.1 -0.2 -0.6 -0.3 1.2 0.7 0.6 0.6 0.6 0.4 0.5 0.7 1.6 0.9 -0.9 -1.3 -1.2 -1.5 -1.7 -0.8 -1.4 0.6 0.9 2.2 2.5 2.6 3.7 4.2 4.6
6.3 7.2 6.9 7.2 6.9 6.5 5.9 4.9 1.5 1.0 0.7 1.1 1.5 1.5 0.8 1.3 0.3 1.2 1.2 1.8 1.7 1.5 0.7 -0.7 -0.2 -1.5 -2.5 -1.4 -1.1 -1.1 -0.1 1.2 1.5 2.6 3.2 3.7 3.9 4.4
8.2 8.2 7.0 6.3 6.2 5.7 4.5 2.4 1.7 2.1 2.1 1.9 1.9 2.0 1.5 1.9 1.1 1.7 2.1 2.6 2.0 1.4 0.2 0.2 -0.3 -0.8 -0.7 -1.7 0.3 0.3 1.0 1.3 1.9 2.7 3.6 4.2 3.8 3.3
8.4 7.3 6.9 6.1 5.9 5.8 4.6 3.4 2.6 2.6 2.4 2.4 2.3 2.4 1.9 2.9 2.9 1.9 2.1 2.7 2.9 1.2 0.7 -1.6 -2.0 -1.6 -2.9 -1.2 1.8 1.0 1.4 2.1 2.7 3.1 3.5 3.9 3.1 2.6
7.9 7.6 6.6 6.2 5.3 5.5 4.6 4.1 3.7 2.6 2.2 2.3 2.8 3.1 3.0 2.8 3.5 2.1 3.0 3.4 1.8 0.9 -1.0 -2.4 -3.6 -4.3 -3.3 -1.9 0.3 4.6 2.8 2.8 3.2 3.7 3.7 3.3 3.5 3.3
7.8 7.4 6.8 6.3 5.3 4.9 4.8 4.3 3.1 2.6 2.6 2.9 3.4 3.2 2.7 2.5 3.4 2.7 2.9 1.2 1.5 -0.1 -1.3 -3.8 -4.0 -5.0 -0.9 -1.5 0.0 -1.8 3.5 2.7 4.4 4.5 3.4 4.0 4.0 3.8
8.0 7.2 7.1 6.4 5.4 4.7 4.3 3.8 3.5 3.3 3.3 3.3 3.6 2.9 2.3 2.6 2.9 3.1 2.0 3.3 2.8 -0.2 -1.9 -2.8 -2.8 1.2 -6.2 -5.6 -2.2 0.3 0.7 4.6 5.0 4.1 4.4 5.4 5.6 4.9
7.9 7.1 6.9 6.3 5.5 4.7 3.9 3.8 3.9 4.3 3.7 3.8 3.2 2.7 2.6 2.5 3.0 2.0 1.8 1.8 1.1 -1.1 -2.3 -4.0 -4.3 -4.8 -4.8 -2.1 0.0 0.7 0.5 1.4 3.8 5.1 5.4 5.9 5.7 6.3
7.5 7.0 6.7 6.3 5.4 4.9 3.9 4.1 4.5 4.4 4.5 3.9 3.7 3.1 2.5 2.3 2.2 2.0 1.8 1.2 0.0 -1.2 -1.5 -2.0 -3.2 -4.4 -2.2 -1.0 3.4 2.6 2.7 2.5 3.3 3.1 3.3 5.0 5.1 5.4
Wind_Speed
14 14 13 13 12 11 12 12 14 14 14 12 10 10 11 11 12 11 10 16 18 19 20 19 20 17 14 13 13 12 13 12 13 14 13 14 16 16
12 15 15 13 14 11 12 12 13 14 16 11 10 7 10 8 7 8 9 14 19 21 20 19 19 17 16 14 13 12 11 10 10 12 12 13 14 15
14 15 17 17 13 12 12 12 13 13 15 15 11 6 6 5 5 4 5 7 9 19 21 19 18 18 17 15 13 11 10 9 10 11 12 13 14 14
15 15 19 14 17 15 12 16 14 15 13 19 14 7 5 5 5 7 6 6 7 17 21 20 20 19 16 14 12 10 9 9 10 11 13 13 15 16
13 14 17 17 18 15 15 16 14 13 13 13 15 8 3 3 3 5 7 7 7 15 20 19 18 17 15 12 10 10 11 11 11 12 13 14 16 16
11 12 15 17 18 18 16 17 16 15 13 13 14 12 2 3 2 6 5 6 7 8 13 13 14 15 14 11 11 12 12 12 13 13 15 16 17 15
13 13 14 16 19 19 14 17 16 14 14 13 13 9 5 3 9 6 9 7 8 5 6 5 4 4 5 10 10 12 13 13 13 13 16 18 14 17
12 15 15 15 15 18 21 23 24 20 18 14 14 13 13 10 6 8 7 4 4 5 5 4 4 4 5 4 12 13 14 13 13 15 17 16 15 18
13 14 16 12 13 13 16 18 22 26 26 21 16 14 16 14 12 10 11 6 4 3 4 3 4 5 4 6 14 15 15 14 15 15 17 17 18 19
14 15 16 17 17 15 15 14 17 15 17 13 17 17 15 11 16 14 10 7 7 3 2 3 3 4 3 4 16 15 14 15 14 16 16 17 18 19
15 17 18 17 21 22 17 16 17 17 3 9 14 15 16 20 17 10 9 10 3 3 4 1 2 2 2 3 4 11 13 11 13 15 17 17 17 17
14 16 21 20 23 25 18 16 15 16 6 3 2 3 6 9 18 12 13 11 6 2 5 5 3 3 2 3 1 0 1 9 13 15 15 16 17 5
13 13 13 26 28 29 28 18 18 18 11 6 5 5 6 5 6 4 5 9 6 2 6 3 2 2 2 1 2 2 2 2 3 5 12 16 15 11
14 13 16 31 34 33 25 27 28 23 5 6 6 6 7 6 7 6 7 7 5 5 10 4 3 3 3 1 2 2 1 3 3 4 3 8 13 15
13 20 32 31 32 24 24 26 24 5 6 6 7 5 7 8 10 8 9 10 8 8 5 3 4 4 3 3 2 2 3 2 5 6 4 4 4 4
19 18 22 23 21 17 17 13 1 3 5 4 5 5 7 7 9 6 6 5 5 3 3 5 5 4 2 2 2 5 4 3 2 4 4 4 4 4
23 13 13 13 11 10 6 5 4 4 3 3 5 6 7 7 8 7 6 5 3 5 3 1 2 3 4 5 5 7 6 5 6 6 3 5 5 5
13 12 12 12 11 10 5 3 2 3 3 4 4 5 7 6 7 7 6 4 5 3 3 2 2 2 3 5 15 6 3 5 4 4 4 7 8 5
9 10 11 11 11 10 5 3 2 2 4 4 5 5 6 5 7 6 6 6 3 2 2 2 2 3 1 1 3 11 5 5 5 6 6 6 8 9
10 10 11 11 11 10 9 2 2 4 5 6 7 7 7 5 5 6 6 4 3 2 2 1 2 3 3 3 2 3 11 6 6 7 7 7 9 20
12 12 11 11 11 10 6 1 2 4 5 6 7 7 7 6 5 5 5 9 7 2 2 1 3 6 3 2 2 4 4 13 12 8 8 7 8 7
13 12 12 11 11 10 4 1 1 3 5 5 6 7 7 6 6 6 4 4 2 2 2 1 1 2 2 3 5 6 7 7 9 18 17 15 6 3
12 11 11 10 11 9 3 1 1 2 2 4 5 6 6 6 5 5 4 3 3 3 1 1 2 1 3 2 9 7 10 11 6 9 5 13 17 19
Wind_Direction
246 245 243 245 244 238 237 237 244 260 257 245 238 220 222 216 217 203 190 195 196 206 210 200 192 196 209 223 237 246 261 272 281 278 281 290 287 289
250 247 244 244 245 240 236 239 239 244 262 251 246 223 214 212 213 192 193 180 196 199 193 188 188 200 212 221 231 243 252 261 267 276 280 283 286 291
264 257 254 250 246 241 239 242 242 240 249 261 251 237 206 182 191 196 180 185 193 194 188 186 195 206 212 214 226 236 237 252 267 274 279 279 284 289
283 277 271 264 254 245 239 242 242 243 246 258 256 235 201 207 196 188 194 202 210 191 190 193 201 212 217 213 225 227 235 253 263 271 277 278 278 275
283 288 287 280 271 261 243 243 241 240 239 247 257 248 162 159 152 209 203 217 204 208 193 196 203 218 215 221 225 234 245 251 256 262 268 267 264 275
284 279 279 279 278 273 262 250 244 242 243 238 246 243 177 159 175 194 188 196 199 192 197 190 202 212 217 221 234 242 244 241 251 258 259 261 262 269
295 287 282 275 275 272 271 271 263 247 247 242 244 225 187 172 193 198 210 193 194 181 194 187 183 199 224 235 230 234 236 242 246 254 264 260 266 273
304 301 292 282 279 275 269 258 261 257 262 249 241 223 218 211 177 198 180 167 191 196 170 203 166 206 209 189 223 225 234 238 247 259 257 260 269 274
309 310 305 293 282 283 282 272 260 255 248 260 260 239 221 204 189 185 189 190 165 162 124 185 173 221 211 211 223 232 238 242 248 250 251 262 262 268
314 310 306 314 310 294 293 287 286 267 254 244 250 252 249 206 191 195 180 117 80 100 90 171 186 197 196 213 227 237 246 248 244 244 253 264 265 269
316 319 316 310 306 310 311 299 306 279 291 291 265 262 227 186 169 139 147 156 134 162 182 153 204 146 210 238 237 251 244 227 238 251 260 264 265 268
319 313 309 304 310 312 310 310 300 294 215 180 90 74 155 167 168 187 155 156 124 135 197 150 160 140 242 257 180 231 231 252 262 268 263 266 266 246
316 313 310 309 309 307 305 297 288 292 221 172 129 114 112 96 96 111 117 148 139 117 179 123 129 148 196 270 302 267 213 273 287 284 283 276 273 261
311 309 308 307 303 297 298 292 289 296 163 157 154 150 142 127 114 99 93 83 65 127 147 121 130 140 134 186 248 302 334 283 257 264 254 266 277 275
307 304 303 299 295 296 290 289 293 198 173 172 171 155 139 125 113 98 85 93 81 91 118 123 123 139 153 187 201 241 318 316 290 267 266 249 236 232
314 306 302 301 301 297 297 295 13 165 179 169 149 124 126 136 124 127 127 128 112 128 147 131 144 149 179 215 186 263 222 264 275 287 260 269 251 237
313 311 324 326 325 320 316 355 7 19 35 75 111 124 129 146 131 133 141 148 132 154 143 140 200 181 201 186 255 244 258 252 244 260 239 269 260 240
317 323 324 326 327 320 317 329 7 66 90 103 113 131 136 142 139 130 136 158 149 131 127 153 104 25 343 268 222 246 235 254 253 252 258 278 280 261
325 323 323 324 320 316 289 243 187 156 130 124 123 122 120 122 150 137 149 153 121 110 131 111 113 107 60 315 294 228 235 253 269 277 264 249 272 283
326 325 320 320 320 314 306 252 164 147 138 135 134 128 131 135 163 150 155 134 118 120 96 70 113 162 157 204 262 261 289 282 271 268 271 267 265 271
328 326 320 320 320 314 302 272 184 165 151 141 137 144 134 140 152 148 142 149 153 112 142 232 224 156 158 66 333 283 269 253 250 262 274 266 274 282
326 326 321 319 319 313 299 276 179 161 147 148 146 134 128 133 143 137 126 136 137 130 146 247 289 80 77 190 252 279 290 294 276 280 278 269 259 260
325 322 318 317 320 315 273 240 173 126 131 115 121 123 124 126 122 115 136 132 116 87 112 313 346 59 227 211 283 282 294 297 307 319 296 275 263 259